Regional Weather Roundup
Issued by NWS

Home | Current Version | Previous Version | Graphics & Text | Print | Product List | Glossary Off
Versions: 1 2 3 4 5 6 7 8 9 10 11 12 13 14 15 16 17 18 19 20 21 22 23 24 25 26 27 28 29 30 31 32 33 34 35 36 37 38 39 40 41 42 43 44 45 46 47 48 49 50

000
ASUS43 KDTX 270701
RWRMI
MICHIGAN HOURLY REGIONAL WEATHER ROUNDUP
NATIONAL WEATHER SERVICE DETROIT/PONTIAC MI
300 AM EDT FRI MAR 27 2015

NOTE: "FAIR" INDICATES FEW OR NO CLOUDS BELOW 12,000 FEET WITH NO
SIGNIFICANT WEATHER AND/OR OBSTRUCTION TO VISIBILITY.

MIZ047>049-052>055-059>063-066>070-074>076-081>083-270800-
SOUTHEAST LOWER MICHIGAN

CITY           SKY/WX    TMP DP  RH WIND       PRES   REMARKS
ADRIAN         CLOUDY    31  20  63 N8        29.96S WCI  23
ALMA           FLURRIES  22  14  70 N13G20    30.02S WCI  10
ANN ARBOR      CLOUDY    30  19  63 NW13      29.94F WCI  20
BAD AXE        LGT SNOW  22  18  85 NW10      29.95S WCI  11
CARO           CLOUDY    23  15  71 NW9       29.97F WCI  13
DETROIT CITY   CLOUDY    33  20  58 NW8       29.94R WCI  26
DETROIT        FLURRIES  31  19  61 NW13      29.95R WCI  21
FLINT          CLOUDY    25  14  63 NW15      29.97S WCI  13
GROSSE ILE     CLOUDY    32  21  64 NW16      29.93R WCI  21
HILLSDALE      CLOUDY    30  20  68 N13       29.94S WCI  20
HOWELL         CLOUDY    25  16  69 NW13G21   29.96R WCI  13

CITY           SKY/WX    TMP DP  RH WIND       PRES   REMARKS
JACKSON        CLOUDY    27  16  63 NW14G25   29.96S WCI  16
LAMBERTVILLE   CLOUDY    34  23  64 NW9       29.95S WCI  26
LANSING        CLOUDY    24  14  65 N12       30.00S WCI  13
LAPEER         CLOUDY    23  14  68 NW13      29.96R WCI  11
MASON          CLOUDY    26  16  67 N14G20    29.97S WCI  14
MONROE         CLOUDY    32  21  64 NW8       29.94R WCI  25
MT. CLEMENS    CLOUDY    29  19  64 NW15G22   29.91R WCI  18
PONTIAC        CLOUDY    26  17  68 NW16      29.92F WCI  14
PORT HOPE        N/A     23  18  81 NW14G21   29.93S WCI  11
PORT HURON     PTCLDY    27  19  74 NW10G16   29.93F WCI  17
TRI CITIES     CLOUDY    22  11  62 NW16      30.01S WCI   8
TROY           CLOUDY    31  19  61 NW10      29.95S WCI  22
SAGINAW HB     CLOUDY    23  14  68 NW17G24   30.00S WCI   9
$$
MIZ043>046-050>051-056>058-064>065-071>073-077>080-270800-
SOUTHWEST LOWER MICHIGAN

CITY           SKY/WX    TMP DP  RH WIND       PRES   REMARKS
BATTLE CREEK   CLOUDY    28  18  66 N13       29.99S WCI  17
BENTON HARBOR  CLOUDY    26  17  68 VRB7G16   30.04F WCI  18
BIG RAPIDS     CLOUDY    21  12  69 N14G21    30.02S WCI   8
COLDWATER      CLOUDY    29  19  66 N12G18    29.97S WCI  20
FREMONT        CLOUDY    22  13  71 N15G22    30.05S WCI   8
HOLLAND        PTCLDY    24  12  60 N12G20    30.05S WCI  13
GRAND RAPIDS   MOCLDY    22  12  65 N15G22    30.04R WCI   9
IONIA          CLOUDY    24  15  67 NW8       30.01S WCI  15
KALAMAZOO      CLOUDY    27  15  61 N16       30.01R WCI  15
LUDINGTON      LGT SNOW  22  14  70 N9G23     30.10S WCI  12
MARSHALL       CLOUDY    27  19  71 N7        29.97S WCI  19
MOUNT PLEASANT CLOUDY    21  10  64 NW13      30.02R WCI   8
MUSKEGON       PTCLDY    23  14  68 N12       30.07F WCI  12
SOUTH HAVEN    CLOUDY    28  17  65 N12G20    30.04S WCI  18
$$
MIZ016>042-270800-
NORTHERN LOWER MICHIGAN

CITY           SKY/WX    TMP DP  RH WIND       PRES   REMARKS
ALPENA         CLOUDY    21  14  74 N13       29.99R WCI   9
BEAVER ISLAND  PTCLDY    15   4  62 N7        30.10R WCI   5
BELLAIRE       CLOUDY    19   8  63 N8        30.08R WCI   9
CADILLAC       CLOUDY    18  10  70 NW12G17   29.99S WCI   5
CHARLEVOIX     CLOUDY    17   9  72 N14G20    30.10S WCI   3
FRANKFORT      CLOUDY    24   6  47 N8G17     30.09S WCI  15
GAYLORD        LGT SNOW  15  10  80 N8        29.98R WCI   4
GRAYLING       CLOUDY    16   9  71 NW16      29.99S WCI   1
HARBOR SPRINGS CLOUDY    17   9  71 NW6       30.05R WCI   8
HOUGHTON LAKE  CLOUDY    17   9  70 NW12G22   29.99S WCI   4
MANISTEE       CLOUDY    21   9  58 N12       30.09S WCI   9
OSCODA         LGT SNOW  22  18  83 NW14      29.95S WCI   9
PELLSTON       LGT SNOW  16  10  77 N15       30.06R WCI   1
ROGERS CITY    FLURRIES  19  15  81 N16G24    30.02R WCI   5
TRAVERSE CITY  LGT SNOW  20  13  74 NW12      30.07R WCI   8
$$
MIZ007>008-015-270800-
EASTERN UPPER MICHIGAN

CITY           SKY/WX    TMP DP  RH WIND       PRES   REMARKS
KINROSS        CLEAR     10   5  79 N8        30.05R WCI  -1
MACKINAC ISLAN CLOUDY    15   7  68 N13G21    30.05R WCI   2
NEWBERRY       CLEAR      9   3  78 N6        30.08R WCI  -1
S. S. MARIE    CLEAR     12   1  61 N10       30.07R WCI  -1
$$
MIZ004>006-011>014-085-270800-
CENTRAL UPPER MICHIGAN

CITY           SKY/WX    TMP DP  RH WIND       PRES   REMARKS
MANISTIQUE     CLEAR     11   5  76 NW5       30.11R WCI   3
ESCANABA       PTCLDY    14   7  73 NW5       30.12F WCI   6
MENOMINEE      CLEAR     16   5  62 N6        30.14S WCI   7
SAWYER-GWINN   LGT SNOW  16  11  81 N13       30.09R WCI   2
$$
MIZ001>003-009>011-084-270800-
WESTERN UPPER MICHIGAN

CITY           SKY/WX    TMP DP  RH WIND       PRES   REMARKS
IRON MOUNTAIN  CLEAR     11   3  70 NW6       30.11R WCI   1
HOUGHTON       CLEAR     13   3  64 N8        30.15R WCI   2
COPPER HARBOR    N/A     10   2  69 E8        30.19R WCI  -2
IRONWOOD       CLOUDY    19   7  58 N7        30.15S WCI  10
$$

ABBREVIATIONS USED IN REMARKS
   TC - TEMPERATURE IN CELSIUS
  WCI - WIND CHILL INDEX
   HX - HEAT INDEX
  VSB - VISIBILITY




USA.gov is the U.S. government's official web portal to all federal, state and local government web resources and services.